Lid_Strength_Index
7 6 3 3 3 2 2 2 2 1 2 2 2 2 2 3 4 3 2 2 1 2 1 2 3 4 3 4 4 5 6 6 6 6 7 5 4 4 4 5 6 6 6
6 5 5 4 3 3 2 2 2 2 2 2 3 3 5 6 7 8 7 6 4 4 3 4 4 4 5 5 5 5 6 6 5 6 6 8 6 5 4 6 7 7 7
6 5 4 6 6 4 3 2 2 2 2 5 6 6 6 7 7 8 8 8 7 7 5 5 5 5 4 6 6 5 6 6 6 5 6 8 8 8 7 7 7 7 8
5 5 5 4 7 7 4 2 2 2 4 4 5 4 4 6 7 8 9 9 8 8 7 7 7 7 7 8 8 7 6 5 7 6 6 6 6 9 10 7 7 7 8
5 5 5 4 5 8 5 4 3 4 4 4 4 5 6 8 8 9 10 10 10 10 9 8 9 9 8 8 7 7 6 6 6 7 7 6 6 6 8 10 9 7 7
6 5 5 4 5 5 7 6 5 5 5 6 6 5 6 8 9 10 10 11 11 10 9 9 8 8 8 7 6 6 6 6 6 6 6 7 7 7 7 8 8 8 8
6 5 5 5 5 5 4 7 7 8 8 7 6 7 7 8 8 9 10 10 11 11 9 9 8 8 8 8 7 8 7 7 6 7 8 7 7 7 7 7 7 7 6
6 5 5 5 5 6 6 5 6 7 8 8 8 8 8 9 9 9 10 10 10 9 8 8 9 9 8 9 8 8 8 8 7 8 8 8 6 6 6 5 6 7 6
6 5 5 5 5 6 6 5 5 5 6 7 8 8 8 9 9 9 10 10 10 9 9 9 9 8 9 8 8 9 9 9 8 8 8 5 5 5 5 5 5 6 8
6 6 5 5 5 5 5 5 5 6 5 6 6 7 7 8 9 8 9 9 9 9 9 9 9 9 9 9 9 9 9 8 9 9 8 7 7 6 6 5 4 4 6
7 6 5 5 4 5 5 6 5 5 6 6 6 6 7 7 8 8 9 9 9 9 9 9 9 9 10 9 10 10 10 10 11 10 9 7 6 6 6 6 5 6 5
7 6 5 5 4 5 5 5 5 5 5 5 5 5 6 7 7 8 8 8 8 8 9 9 9 10 11 10 10 10 10 11 11 11 9 9 8 10 10 10 10 8 8
7 5 5 5 5 4 4 5 5 6 6 5 5 6 5 6 6 7 7 8 8 8 8 9 8 9 9 10 10 10 10 11 11 10 11 11 11 12 12 12 11 9 7
6 6 7 6 6 6 6 6 6 6 6 5 6 5 6 5 6 6 6 6 7 7 7 7 8 9 9 9 9 9 11 11 11 11 11 11 11 12 12 11 11 10 10
8 7 7 8 8 8 7 6 5 5 5 6 6 6 6 5 5 6 6 5 6 7 6 7 8 8 9 10 10 10 12 12 11 12 12 12 11 10 10 11 12 11 11
10 9 9 9 8 7 7 5 5 4 3 4 5 5 5 5 5 5 6 5 6 7 7 8 8 10 9 11 10 10 9 10 11 12 12 12 10 11 9 10 10 10 11
10 10 10 9 7 6 5 5 4 4 4 4 3 4 4 5 5 5 6 7 7 7 8 8 9 10 10 10 8 9 10 11 11 13 13 14 14 12 13 11 10 10 10
10 10 10 10 9 7 6 5 4 4 4 4 4 3 3 4 5 4 6 6 7 8 8 9 10 10 11 9 9 10 9 11 12 12 13 14 15 15 14 15 16 19 17
10 10 9 9 9 9 8 7 6 6 6 5 4 4 3 4 4 6 8 6 6 7 10 11 10 11 12 9 9 9 10 11 13 13 14 15 17 13 12 17 18 20 20
9 11 10 9 9 9 8 9 9 9 8 7 6 4 3 3 7 4 7 9 6 9 8 10 11 11 12 9 8 9 10 12 12 14 14 12 15 11 12 18 18 19 19
9 9 9 10 9 8 8 9 9 9 9 8 7 6 4 2 3 6 6 7 8 8 9 10 11 11 11 10 9 9 10 10 12 14 15 14 11 10 11 14 19 18 19
9 9 9 9 9 8 8 8 8 7 7 7 7 7 6 6 3 3 4 6 8 9 10 11 11 11 12 10 9 9 9 10 11 12 14 14 10 10 10 14 13 12 18
9 9 9 8 8 8 7 8 7 6 7 6 7 7 7 7 6 4 4 6 7 8 10 10 11 12 12 11 10 9 9 10 11 11 12 11 10 10 11 12 11 15 18
8 8 7 8 8 7 7 7 5 5 6 6 5 5 5 5 5 5 5 6 7 7 10 10 10 10 12 11 11 10 10 13 12 12 12 12 11 12 14 13 12 15 15
7 7 7 7 7 5 4 4 5 5 5 4 5 4 4 4 5 5 4 5 6 6 8 9 9 11 12 11 10 10 11 12 12 12 12 12 13 14 15 17 13 14 15
8 8 8 7 6 5 5 5 4 4 6 5 5 4 4 4 4 4 5 6 7 8 8 8 8 9 9 10 10 10 10 10 11 12 13 13 14 14 15 14 14 13 14